JST610 YMAV-YSSY

Flight info

Callsign JST610
Flight time 1h 10m
Altitude 37000
Route AV W190 ML H129 DOSEL Y59 RIVET
Aircraft A320/M-SDE3FGHIRWY/LB1

Departure

Time 2026-04-24 05:58
Airport Melbourne Avalon International Airport (YMAV)

Arrival

Time 2026-04-24 07:08
Airport Sydney Kingsford Smith International Airport (YSSY)
Time Latitude Longitude Altitude Speed Heading
2026-04-24 05:31 -38.02715 144.47268 41 ft 0 kts
2026-04-24 05:49 -38.02719 144.47267 41 ft 3 kts
2026-04-24 05:49 -38.02745 144.47261 40 ft 4 kts
2026-04-24 05:50 -38.02770 144.47255 39 ft 4 kts 32°
2026-04-24 05:50 -38.02786 144.47231 41 ft 4 kts 84°
2026-04-24 05:50 -38.02787 144.47220 41 ft 3 kts 98°
2026-04-24 05:50 -38.02790 144.47254 41 ft 4 kts 96°
2026-04-24 05:51 -38.02793 144.47285 41 ft 2 kts 98°
2026-04-24 05:51 -38.02793 144.47286 41 ft 0 kts 98°
2026-04-24 05:52 -38.02794 144.47289 41 ft 2 kts 98°
2026-04-24 05:53 -38.02804 144.47340 39 ft 9 kts 120°
2026-04-24 05:53 -38.02871 144.47359 40 ft 12 kts 186°
2026-04-24 05:53 -38.02963 144.47346 41 ft 14 kts 187°
2026-04-24 05:53 -38.03067 144.47323 39 ft 16 kts 191°
2026-04-24 05:54 -38.03172 144.47260 41 ft 18 kts 220°
2026-04-24 05:54 -38.03251 144.47130 40 ft 20 kts 227°
2026-04-24 05:54 -38.03375 144.47048 42 ft 21 kts 191°
2026-04-24 05:54 -38.03528 144.47021 41 ft 23 kts 187°
2026-04-24 05:55 -38.03694 144.46992 42 ft 25 kts 187°
2026-04-24 05:55 -38.03875 144.46962 41 ft 27 kts 187°
2026-04-24 05:55 -38.04072 144.46930 40 ft 30 kts 188°
2026-04-24 05:55 -38.04279 144.46894 41 ft 29 kts 187°
2026-04-24 05:56 -38.04474 144.46861 43 ft 24 kts 187°
2026-04-24 05:56 -38.04610 144.46838 42 ft 12 kts 188°
2026-04-24 05:56 -38.04641 144.46758 41 ft 13 kts 277°
2026-04-24 05:56 -38.04628 144.46649 43 ft 10 kts 288°
2026-04-24 05:57 -38.04579 144.46628 42 ft 0 kts
2026-04-24 05:57 -38.04576 144.46628 42 ft 4 kts
2026-04-24 05:57 -38.04287 144.46678 42 ft 87 kts
2026-04-24 05:57 -38.03432 144.46823 85 ft 153 kts
2026-04-24 05:58 -38.02335 144.47012 748 ft 163 kts
2026-04-24 05:58 -38.01182 144.47225 1612 ft 171 kts 12°
2026-04-24 05:58 -38.00102 144.47938 2234 ft 187 kts 37°
2026-04-24 05:58 -37.99114 144.49165 2599 ft 209 kts 44°
2026-04-24 05:59 -37.98123 144.50580 3166 ft 219 kts 46°
2026-04-24 05:59 -37.97129 144.52035 4060 ft 218 kts 46°
2026-04-24 05:59 -37.96116 144.53479 4877 ft 222 kts 44°
2026-04-24 05:59 -37.95066 144.54939 5627 ft 226 kts 44°
2026-04-24 06:00 -37.93988 144.56413 6379 ft 231 kts 43°
2026-04-24 06:00 -37.92822 144.57824 7073 ft 237 kts 36°
2026-04-24 06:00 -37.91466 144.59189 7434 ft 261 kts 35°
2026-04-24 06:00 -37.89987 144.60647 7996 ft 276 kts 35°
2026-04-24 06:01 -37.88456 144.62155 8791 ft 280 kts 35°
2026-04-24 06:01 -37.86908 144.63678 9628 ft 284 kts 35°
2026-04-24 06:01 -37.85338 144.65218 10427 ft 288 kts 35°
2026-04-24 06:01 -37.83702 144.66817 10798 ft 309 kts 35°
2026-04-24 06:02 -37.81966 144.68514 11011 ft 330 kts 35°
2026-04-24 06:02 -37.80125 144.70320 11555 ft 338 kts 36°
2026-04-24 06:02 -37.78257 144.72166 12210 ft 344 kts 36°
2026-04-24 06:02 -37.76363 144.74037 12884 ft 348 kts 36°
2026-04-24 06:03 -37.74442 144.75928 13536 ft 353 kts 36°
2026-04-24 06:03 -37.72490 144.77845 14184 ft 358 kts 37°
2026-04-24 06:03 -37.70510 144.79786 14754 ft 362 kts 37°
2026-04-24 06:03 -37.68509 144.81745 15362 ft 366 kts 37°
2026-04-24 06:04 -37.66491 144.83723 15967 ft 369 kts 37°
2026-04-24 06:04 -37.64486 144.85771 16561 ft 372 kts 39°
2026-04-24 06:04 -37.62525 144.87927 17162 ft 376 kts 41°
2026-04-24 06:04 -37.60584 144.90149 17769 ft 379 kts 42°
2026-04-24 06:05 -37.58635 144.92410 18382 ft 382 kts 42°
2026-04-24 06:05 -37.56666 144.94682 18947 ft 385 kts 42°
2026-04-24 06:05 -37.54669 144.96962 19499 ft 389 kts 41°
2026-04-24 06:05 -37.52650 144.99245 20054 ft 392 kts 41°
2026-04-24 06:06 -37.50605 145.01543 20613 ft 395 kts 41°
2026-04-24 06:06 -37.48543 145.03854 21164 ft 399 kts 41°
2026-04-24 06:06 -37.46460 145.06185 21697 ft 402 kts 40°
2026-04-24 06:06 -37.44359 145.08533 22224 ft 405 kts 40°
2026-04-24 06:07 -37.42240 145.10900 22732 ft 409 kts 40°
2026-04-24 06:07 -37.40107 145.13281 23236 ft 412 kts 40°
2026-04-24 06:07 -37.37954 145.15684 23736 ft 415 kts 40°
2026-04-24 06:07 -37.35788 145.18106 24181 ft 418 kts 40°
2026-04-24 06:08 -37.33634 145.20512 24561 ft 422 kts 40°
2026-04-24 06:08 -37.31401 145.23000 24945 ft 425 kts 40°
2026-04-24 06:08 -37.29205 145.25435 25324 ft 428 kts 40°
2026-04-24 06:08 -37.26962 145.27920 25683 ft 431 kts 40°
2026-04-24 06:09 -37.24706 145.30425 26045 ft 435 kts 40°
2026-04-24 06:09 -37.22433 145.32951 26408 ft 438 kts 40°
2026-04-24 06:09 -37.20146 145.35489 26775 ft 441 kts 40°
2026-04-24 06:09 -37.17847 145.38050 27130 ft 443 kts 42°
2026-04-24 06:10 -37.15747 145.40892 27477 ft 447 kts 51°
2026-04-24 06:10 -37.13915 145.44059 27832 ft 450 kts 54°
2026-04-24 06:10 -37.12089 145.47261 28188 ft 453 kts 53°
2026-04-24 06:11 -37.08388 145.53709 28903 ft 458 kts 53°
2026-04-24 06:11 -37.06519 145.56956 29256 ft 460 kts 53°
2026-04-24 06:11 -37.04641 145.60212 29602 ft 463 kts 53°
2026-04-24 06:11 -37.02750 145.63485 29939 ft 465 kts 53°
2026-04-24 06:12 -37.00848 145.66777 30256 ft 468 kts 53°
2026-04-24 06:12 -36.98937 145.70086 30580 ft 470 kts 53°
2026-04-24 06:12 -36.97021 145.73405 30966 ft 470 kts 54°
2026-04-24 06:12 -36.95112 145.76715 31366 ft 469 kts 54°
2026-04-24 06:13 -36.93211 145.80014 31784 ft 468 kts 54°
2026-04-24 06:13 -36.91307 145.83307 32199 ft 467 kts 54°
2026-04-24 06:13 -36.89405 145.86590 32609 ft 466 kts 54°
2026-04-24 06:13 -36.87505 145.89861 33028 ft 465 kts 53°
2026-04-24 06:14 -36.85627 145.93085 33433 ft 465 kts 53°
2026-04-24 06:14 -36.83700 145.96386 33856 ft 464 kts 53°
2026-04-24 06:14 -36.81826 145.99595 34265 ft 463 kts 54°
2026-04-24 06:14 -36.79933 146.02840 34654 ft 463 kts 54°
2026-04-24 06:15 -36.78042 146.06085 35010 ft 461 kts 54°
2026-04-24 06:15 -36.76159 146.09317 35388 ft 460 kts 54°
2026-04-24 06:15 -36.74277 146.12541 35740 ft 459 kts 54°
2026-04-24 06:15 -36.72403 146.15746 36084 ft 458 kts 54°
2026-04-24 06:16 -36.70526 146.18953 36428 ft 457 kts 54°
2026-04-24 06:16 -36.68655 146.22146 36761 ft 455 kts 54°
2026-04-24 06:16 -36.66786 146.25332 37072 ft 455 kts 54°
2026-04-24 06:16 -36.64924 146.28500 37352 ft 454 kts 54°
2026-04-24 06:17 -36.63054 146.31683 37429 ft 457 kts 54°
2026-04-24 06:17 -36.59291 146.38085 37433 ft 459 kts 54°
2026-04-24 06:18 -36.55538 146.44449 37435 ft 459 kts 54°
2026-04-24 06:18 -36.51752 146.50849 37437 ft 459 kts 54°
2026-04-24 06:19 -36.47972 146.57235 37435 ft 459 kts 54°
2026-04-24 06:19 -36.44186 146.63619 37436 ft 459 kts 54°
2026-04-24 06:20 -36.40398 146.70002 37441 ft 459 kts 54°
2026-04-24 06:20 -36.36596 146.76386 37444 ft 460 kts 54°
2026-04-24 06:21 -36.32785 146.82769 37450 ft 460 kts 54°
2026-04-24 06:21 -36.28975 146.89139 37454 ft 460 kts 54°
2026-04-24 06:22 -36.25161 146.95511 37452 ft 460 kts 54°
2026-04-24 06:22 -36.21369 147.01842 37453 ft 460 kts 54°
2026-04-24 06:23 -36.17553 147.08203 37453 ft 460 kts 54°
2026-04-24 06:23 -36.13729 147.14549 37455 ft 460 kts 54°
2026-04-24 06:24 -36.09904 147.20888 37447 ft 460 kts 54°
2026-04-24 06:24 -36.06079 147.27227 37449 ft 460 kts 54°
2026-04-24 06:25 -36.02245 147.33560 37451 ft 460 kts 54°
2026-04-24 06:25 -35.98409 147.39876 37450 ft 460 kts 54°
2026-04-24 06:26 -35.94570 147.46196 37445 ft 460 kts 54°
2026-04-24 06:26 -35.90723 147.52513 37444 ft 460 kts 54°
2026-04-24 06:27 -35.87524 147.57756 37447 ft 460 kts 54°
2026-04-24 06:27 -35.83028 147.65130 37448 ft 461 kts 54°
2026-04-24 06:28 -35.79171 147.71428 37449 ft 460 kts 54°
2026-04-24 06:28 -35.75959 147.76660 37453 ft 460 kts 54°
2026-04-24 06:29 -35.72097 147.82947 37453 ft 460 kts 54°
2026-04-24 06:29 -35.67609 147.90258 37452 ft 461 kts 54°
2026-04-24 06:30 -35.64364 147.95514 37451 ft 461 kts 54°
2026-04-24 06:30 -35.60486 148.01789 37455 ft 461 kts 55°
2026-04-24 06:31 -35.56611 148.08056 37455 ft 461 kts 55°
2026-04-24 06:31 -35.52725 148.14326 37457 ft 461 kts 55°
2026-04-24 06:32 -35.48839 148.20590 37451 ft 461 kts 55°
2026-04-24 06:32 -35.44952 148.26843 37459 ft 461 kts 55°
2026-04-24 06:33 -35.41081 148.33052 37454 ft 461 kts 55°
2026-04-24 06:33 -35.37181 148.39294 37458 ft 461 kts 55°
2026-04-24 06:34 -35.33276 148.45534 37460 ft 462 kts 55°
2026-04-24 06:34 -35.29369 148.51775 37469 ft 462 kts 56°
2026-04-24 06:35 -35.25455 148.58017 37461 ft 462 kts 56°
2026-04-24 06:35 -35.21534 148.64255 37462 ft 462 kts 56°
2026-04-24 06:36 -35.17618 148.70484 37470 ft 462 kts 56°
2026-04-24 06:36 -35.13688 148.76707 37468 ft 462 kts 56°
2026-04-24 06:37 -35.09756 148.82922 37469 ft 462 kts 56°
2026-04-24 06:37 -35.05847 148.89096 37464 ft 462 kts 56°
2026-04-24 06:38 -35.01913 148.95293 37465 ft 462 kts 56°
2026-04-24 06:38 -34.97976 149.01488 37464 ft 462 kts 56°
2026-04-24 06:39 -34.94033 149.07679 37464 ft 462 kts 56°
2026-04-24 06:39 -34.90092 149.13866 37127 ft 462 kts 56°
2026-04-24 06:39 -34.88121 149.16954 36877 ft 461 kts 56°
2026-04-24 06:40 -34.86155 149.20036 36620 ft 461 kts 56°
2026-04-24 06:40 -34.84184 149.23117 36372 ft 462 kts 56°
2026-04-24 06:40 -34.82207 149.26200 36121 ft 462 kts 56°
2026-04-24 06:40 -34.80229 149.29284 35879 ft 462 kts 56°
2026-04-24 06:41 -34.78250 149.32366 35634 ft 462 kts 56°
2026-04-24 06:41 -34.76275 149.35441 35393 ft 462 kts 57°
2026-04-24 06:41 -34.74330 149.38552 34849 ft 461 kts 61°
2026-04-24 06:41 -34.72734 149.41872 33896 ft 462 kts 67°
2026-04-24 06:42 -34.71239 149.45343 32987 ft 464 kts 67°
2026-04-24 06:42 -34.69735 149.48811 32354 ft 461 kts 66°
2026-04-24 06:42 -34.68243 149.52227 31823 ft 455 kts 66°
2026-04-24 06:42 -34.66757 149.55614 31243 ft 451 kts 66°
2026-04-24 06:43 -34.65289 149.58961 30671 ft 448 kts 66°
2026-04-24 06:43 -34.63830 149.62290 30046 ft 444 kts 66°
2026-04-24 06:43 -34.62388 149.65576 29492 ft 438 kts 66°
2026-04-24 06:43 -34.60965 149.68823 28930 ft 433 kts 66°
2026-04-24 06:44 -34.59561 149.72029 28378 ft 428 kts 65°
2026-04-24 06:44 -34.58165 149.75211 27838 ft 424 kts 65°
2026-04-24 06:44 -34.56788 149.78347 27303 ft 420 kts 65°
2026-04-24 06:44 -34.55419 149.81463 26779 ft 416 kts 64°
2026-04-24 06:45 -34.54063 149.84547 26262 ft 412 kts 64°
2026-04-24 06:45 -34.52734 149.87561 25770 ft 409 kts 64°
2026-04-24 06:45 -34.51392 149.90591 25278 ft 406 kts 63°
2026-04-24 06:45 -34.50061 149.93600 24807 ft 404 kts 63°
2026-04-24 06:46 -34.48740 149.96588 24336 ft 402 kts 63°
2026-04-24 06:46 -34.47423 149.99570 23828 ft 400 kts 63°
2026-04-24 06:46 -34.46120 150.02523 23335 ft 397 kts 63°
2026-04-24 06:46 -34.44821 150.05463 22870 ft 393 kts 63°
2026-04-24 06:47 -34.43532 150.08373 22385 ft 391 kts 63°
2026-04-24 06:47 -34.42248 150.11265 21905 ft 389 kts 63°
2026-04-24 06:47 -34.40967 150.14147 21406 ft 387 kts 63°
2026-04-24 06:47 -34.39692 150.17008 20914 ft 385 kts 63°
2026-04-24 06:48 -34.38421 150.19859 20405 ft 384 kts 63°
2026-04-24 06:48 -34.37152 150.22704 19890 ft 382 kts 63°
2026-04-24 06:48 -34.35910 150.25491 19376 ft 381 kts 63°
2026-04-24 06:48 -34.34668 150.28284 18861 ft 373 kts 63°
2026-04-24 06:49 -34.33447 150.31025 18304 ft 369 kts 63°
2026-04-24 06:49 -34.32232 150.33749 17794 ft 365 kts 63°
2026-04-24 06:49 -34.31025 150.36444 17290 ft 362 kts 63°
2026-04-24 06:49 -34.29829 150.39107 16785 ft 358 kts 62°
2026-04-24 06:50 -34.28645 150.41744 16294 ft 355 kts 63°
2026-04-24 06:50 -34.27473 150.44360 15795 ft 353 kts 63°
2026-04-24 06:50 -34.26310 150.46959 15301 ft 350 kts 63°
2026-04-24 06:50 -34.25154 150.49542 14809 ft 348 kts 63°
2026-04-24 06:51 -34.24004 150.52110 14318 ft 346 kts 63°
2026-04-24 06:51 -34.22865 150.54661 13792 ft 344 kts 63°
2026-04-24 06:51 -34.21730 150.57195 13310 ft 340 kts 63°
2026-04-24 06:51 -34.20612 150.59698 12833 ft 337 kts 63°
2026-04-24 06:52 -34.19503 150.62176 12352 ft 334 kts 63°
2026-04-24 06:52 -34.18403 150.64636 11881 ft 331 kts 63°
2026-04-24 06:52 -34.17309 150.67071 11421 ft 329 kts 63°
2026-04-24 06:52 -34.16210 150.69508 10720 ft 334 kts 63°
2026-04-24 06:53 -34.15099 150.71969 10235 ft 326 kts 63°
2026-04-24 06:53 -34.14056 150.74271 10101 ft 300 kts 63°
2026-04-24 06:53 -34.13085 150.76416 9736 ft 285 kts 63°
2026-04-24 06:53 -34.12150 150.78484 9472 ft 278 kts 63°
2026-04-24 06:54 -34.11226 150.80534 9329 ft 279 kts 63°
2026-04-24 06:54 -34.10301 150.82590 9011 ft 278 kts 63°
2026-04-24 06:54 -34.09384 150.84627 8757 ft 275 kts 63°
2026-04-24 06:54 -34.08477 150.86648 8520 ft 274 kts 62°
2026-04-24 06:55 -34.07581 150.88640 8293 ft 273 kts 62°
2026-04-24 06:55 -34.06682 150.90641 8061 ft 271 kts 62°
2026-04-24 06:55 -34.05782 150.92637 7819 ft 270 kts 62°
2026-04-24 06:55 -34.04883 150.94624 7587 ft 268 kts 62°
2026-04-24 06:56 -34.03996 150.96588 7355 ft 267 kts 62°
2026-04-24 06:56 -34.03109 150.98554 7121 ft 266 kts 61°
2026-04-24 06:56 -34.01946 151.00266 6881 ft 266 kts 37°
2026-04-24 06:56 -34.00255 151.01116 6628 ft 267 kts
2026-04-24 06:57 -33.98402 151.00961 6374 ft 270 kts 350°
2026-04-24 06:57 -33.96575 151.00447 6122 ft 269 kts 348°
2026-04-24 06:57 -33.94757 150.99900 6002 ft 269 kts 348°
2026-04-24 06:57 -33.92937 150.99350 5986 ft 271 kts 348°
2026-04-24 06:58 -33.91104 150.98794 5685 ft 271 kts 348°
2026-04-24 06:58 -33.89282 150.98237 5423 ft 268 kts 347°
2026-04-24 06:58 -33.87481 150.97687 5172 ft 267 kts 348°
2026-04-24 06:58 -33.85677 150.97137 4911 ft 267 kts 348°
2026-04-24 06:59 -33.83881 150.96590 4655 ft 266 kts 347°
2026-04-24 06:59 -33.82084 150.96043 4404 ft 266 kts 348°
2026-04-24 06:59 -33.80295 150.95496 4153 ft 266 kts 347°
2026-04-24 06:59 -33.78504 150.94942 3890 ft 266 kts 348°
2026-04-24 07:00 -33.76715 150.94390 3633 ft 263 kts 348°
2026-04-24 07:00 -33.74988 150.93868 3379 ft 249 kts 351°
2026-04-24 07:00 -33.73345 150.93931 3124 ft 230 kts 23°
2026-04-24 07:00 -33.72074 150.95012 2997 ft 228 kts 56°
2026-04-24 07:01 -33.71468 150.96757 2988 ft 229 kts 79°
2026-04-24 07:01 -33.71180 150.98638 2980 ft 229 kts 82°
2026-04-24 07:01 -33.70933 151.00522 2986 ft 229 kts 83°
2026-04-24 07:01 -33.70694 151.02417 2988 ft 229 kts 83°
2026-04-24 07:02 -33.70466 151.04283 2983 ft 230 kts 83°
2026-04-24 07:02 -33.70233 151.06200 2981 ft 228 kts 84°
2026-04-24 07:02 -33.70290 151.08069 2995 ft 229 kts 103°
2026-04-24 07:02 -33.70891 151.09829 3002 ft 224 kts 122°
2026-04-24 07:03 -33.71919 151.11182 2993 ft 217 kts 141°
2026-04-24 07:03 -33.73213 151.12021 2994 ft 214 kts 160°
2026-04-24 07:03 -33.74688 151.12442 2999 ft 215 kts 165°
2026-04-24 07:03 -33.76128 151.12811 2999 ft 214 kts 166°
2026-04-24 07:04 -33.77583 151.13186 3009 ft 214 kts 166°
2026-04-24 07:04 -33.79063 151.13568 2802 ft 214 kts 165°
2026-04-24 07:04 -33.80508 151.13941 2539 ft 212 kts 166°
2026-04-24 07:04 -33.81885 151.14296 2264 ft 198 kts 165°
2026-04-24 07:05 -33.83201 151.14637 2019 ft 189 kts 165°
2026-04-24 07:05 -33.84424 151.14952 1788 ft 171 kts 164°
2026-04-24 07:05 -33.85556 151.15245 1545 ft 159 kts 165°
2026-04-24 07:05 -33.86608 151.15517 1332 ft 149 kts 165°
2026-04-24 07:06 -33.87588 151.15771 1143 ft 139 kts 163°
2026-04-24 07:06 -33.88527 151.16015 975 ft 137 kts 163°
2026-04-24 07:06 -33.89437 151.16251 805 ft 135 kts 166°
2026-04-24 07:06 -33.90347 151.16489 582 ft 133 kts 165°
2026-04-24 07:07 -33.91247 151.16732 417 ft 131 kts 167°
2026-04-24 07:07 -33.92140 151.16960 291 ft 129 kts 168°
2026-04-24 07:07 -33.93848 151.17395 27 ft 97 kts 168°
2026-04-24 07:08 -33.94289 151.17526 30 ft 44 kts 156°
2026-04-24 07:08 -33.94489 151.17686 30 ft 20 kts 140°
2026-04-24 07:08 -33.94516 151.17732 30 ft 0 kts 102°
2026-04-24 07:09 -33.94515 151.17746 30 ft 5 kts 83°
2026-04-24 07:09 -33.94465 151.17777 30 ft 11 kts 346°
2026-04-24 07:09 -33.94391 151.17753 30 ft 11 kts 346°
2026-04-24 07:09 -33.94318 151.17731 30 ft 11 kts 346°
2026-04-24 07:10 -33.94240 151.17707 29 ft 13 kts 345°
2026-04-24 07:10 -33.94176 151.17687 29 ft 0 kts 345°
2026-04-24 07:11 -33.94175 151.17686 29 ft 2 kts 345°
2026-04-24 07:12 -33.94119 151.17670 29 ft 14 kts 347°
2026-04-24 07:12 -33.94019 151.17642 28 ft 15 kts 347°
2026-04-24 07:12 -33.93923 151.17617 29 ft 13 kts 348°
2026-04-24 07:12 -33.93835 151.17594 29 ft 13 kts 347°
2026-04-24 07:13 -33.93749 151.17572 29 ft 12 kts 348°
2026-04-24 07:13 -33.93666 151.17550 29 ft 13 kts 347°
2026-04-24 07:13 -33.93576 151.17527 29 ft 13 kts 348°
2026-04-24 07:13 -33.93490 151.17505 30 ft 12 kts 347°
2026-04-24 07:14 -33.93410 151.17508 30 ft 12 kts 11°
2026-04-24 07:14 -33.93372 151.17573 30 ft 10 kts 112°
2026-04-24 07:14 -33.93400 151.17633 30 ft 7 kts 96°
2026-04-24 07:14 -33.93407 151.17685 30 ft 6 kts 99°
2026-04-24 07:15 -33.93411 151.17710 30 ft 1 kts 100°
2026-04-24 07:15 -33.93411 151.17713 30 ft 0 kts 100°